Location: Chimay
(50.0486°N, 4.3171°E)
Time: 16:27:21
(UTC+00:00)

Cosmos 1743 Rocket - Pass Details

Date: 08 August 2020
Orbit: 604 x 633 km, 82.6° (Epoch: 18 September)

Event Time Altitude Azimuth Distance (km) Brightness Sun altitude
Rises 19:49:17 0° 192° (SSW) 2,898 6.8 -5.9°
Reaches altitude 10° 19:51:30 10° 193° (SSW) 2,000 6.0 -6.2°
Maximum altitude 19:55:57 79° 280° (W) 650 3.8 -6.7°
Drops below altitude 10° 20:00:27 10° 8° (N) 2,028 6.6 -7.3°
Sets 20:02:43 0° 10° (N) 2,943 7.4 -7.6°
